Bowling Green, KY

8:40 PM CDT on July 27, 2016 (GMT -0500)
Bowling Green-Warren County Regional

Weather History for KBWG - November, 2012

Change the Weather History Date:

Friday, November 23, 2012

  Actual Average Record
Temperature  
Mean Temperature 46 °F 46 °F  
Max Temperature 57 °F 56 °F 78 °F (1931)
Min Temperature 35 °F 35 °F 10 °F (1880)
Degree Days  
Heating Degree Days 19 19  
Month to date heating degree days 383 353  
Since 1 July heating degree days 657 616  
Cooling Degree Days 0 0  
Month to date cooling degree days 0 0  
Year to date cooling degree days 1935 1488  
Moisture  
Dew Point 33 °F    
Average Humidity 48    
Maximum Humidity 61    
Minimum Humidity 35    
Precipitation  
Precipitation T in 0.15 in 1.78 in (1979)
Month to date precipitation 0.92 3.13  
Year to date precipitation 35.34 44.00  
Snow  
Snow 0.00 in 0.00 in 2.10 in (1950)
Month to date snowfall 0.0 0.0  
Since 1 July snowfall 0.0 T  
Since 1 September snowfall 0.0 T  
Snow Depth 0.00 in    
Sea Level Pressure  
Sea Level Pressure 30.16 in    
Wind  
Wind Speed 10 mph (WNW)    
Max Wind Speed 18 mph    
Max Gust Speed 28 mph    
Visibility 10 miles    
Events Rain , Snow    
T = Trace of Precipitation, MM = Missing Value Source: NWS Daily Summary

Daily Weather History Graph

Daily Weather History Graph

Search for Another Location

Airport or City:

Trip Planner

Search our weather history database for the weather conditions in past years. The results will help you decide how hot, cold, wet, or windy it might be!

Date:

Astronomy

Nov. 23, 2012 Rise Set
Actual Time 6:32 AM CST 4:31 PM CST
Civil Twilight 6:04 AM CST 4:59 PM CST
Nautical Twilight 5:32 AM CST 5:31 PM CST
Astronomical Twilight 5:01 AM CST 6:02 PM CST
Moon 1:40 PM CST (11/23) 1:57 AM CST (11/23)
Length of Visible Light 10h 54m
Length of Day
9h 58m
Waxing Gibbous, 80% of the Moon is Illuminated
Nov 23
Waxing Gibbous
Nov 28
Full
Dec 6
Last Quarter
Dec 13
New
Dec 19
First Quarter

Hourly Weather History & Observations

Time (CST) Temp. Windchill Dew Point Humidity Pressure Visibility Wind Dir Wind Speed Gust Speed Precip Events Conditions
12:53 AM 51.1 °F - 37.9 °F 61% 30.11 in 10.0 mi SSW 6.9 mph - N/A   Clear
1:53 AM 54.0 °F - 39.0 °F 57% 30.09 in 10.0 mi SSW 5.8 mph - N/A   Clear
2:53 AM 54.0 °F - 39.9 °F 59% 30.08 in 10.0 mi SW 6.9 mph - N/A   Mostly Cloudy
3:53 AM 55.0 °F - 41.0 °F 59% 30.08 in 10.0 mi SW 5.8 mph - N/A   Overcast
4:53 AM 55.9 °F - 42.1 °F 60% 30.08 in 10.0 mi WSW 6.9 mph - N/A   Overcast
5:31 AM 55.4 °F - 42.8 °F 63% 30.07 in 10.0 mi WSW 5.8 mph - N/A   Overcast
5:53 AM 55.0 °F - 43.0 °F 64% 30.08 in 9.0 mi WSW 6.9 mph - 0.00 in Rain Light Rain
6:53 AM 54.0 °F - 46.0 °F 75% 30.10 in 10.0 mi West 9.2 mph - 0.00 in   Overcast
7:53 AM 54.0 °F - 39.0 °F 57% 30.12 in 10.0 mi NW 13.8 mph 21.9 mph N/A   Overcast
8:05 AM 53.6 °F - 37.4 °F 54% 30.14 in 10.0 mi NW 15.0 mph 23.0 mph N/A   Overcast
8:53 AM 52.0 °F - 34.0 °F 50% 30.16 in 10.0 mi NNW 11.5 mph 23.0 mph N/A   Overcast
9:53 AM 51.1 °F - 34.0 °F 52% 30.17 in 10.0 mi NNW 11.5 mph - N/A   Overcast
10:53 AM 54.0 °F - 30.9 °F 41% 30.15 in 10.0 mi NW 15.0 mph 19.6 mph N/A   Clear
11:53 AM 55.0 °F - 30.9 °F 40% 30.15 in 10.0 mi NNW 11.5 mph 20.7 mph N/A   Clear
12:53 PM 55.0 °F - 28.9 °F 37% 30.14 in 10.0 mi NW 11.5 mph 19.6 mph N/A   Clear
1:53 PM 55.0 °F - 30.0 °F 38% 30.13 in 10.0 mi WNW 15.0 mph 21.9 mph N/A   Clear
2:53 PM 54.0 °F - 30.9 °F 41% 30.15 in 10.0 mi NW 13.8 mph 24.2 mph N/A   Clear
3:53 PM 51.1 °F - 32.0 °F 48% 30.17 in 10.0 mi NW 9.2 mph - N/A   Clear
4:53 PM 48.0 °F - 30.0 °F 50% 30.18 in 10.0 mi NW 10.4 mph - N/A   Clear
5:53 PM 46.0 °F 42.5 °F 28.9 °F 51% 30.21 in 10.0 mi NW 6.9 mph - N/A   Clear
6:53 PM 44.1 °F 40.8 °F 27.0 °F 51% 30.23 in 10.0 mi NW 5.8 mph - N/A   Clear
7:53 PM 43.0 °F 37.2 °F 25.0 °F 49% 30.25 in 10.0 mi NW 10.4 mph - N/A   Clear
8:53 PM 41.0 °F 35.8 °F 24.1 °F 51% 30.26 in 10.0 mi NW 8.1 mph - N/A   Clear
9:53 PM 39.0 °F 32.3 °F 23.0 °F 53% 30.27 in 10.0 mi NNW 10.4 mph - N/A   Clear
10:53 PM 37.0 °F 32.4 °F 21.9 °F 54% 30.26 in 9.0 mi NNW 5.8 mph - 0.00 in   Clear
11:53 PM 35.1 °F 27.9 °F 19.0 °F 52% 30.27 in 9.0 mi NNW 9.2 mph - 0.00 in Snow Light Snow